Location: ????? ???????
(25.7275°N, 32.5929°E)
Time: 11:51:33
(UTC+00:00)

Cosmos 968 Rocket - Pass Details

Date: 02 March 2021
Orbit: 740 x 771 km, 74.0° (Epoch: 15 April)

Event Time Altitude Azimuth Distance (km) Brightness Sun altitude
Rises 16:54:40 0° 348° (NNW) 3,241 6.9 -14.9°
Reaches altitude 10° 16:57:04 10° 352° (N) 2,314 6.1 -15.5°
Maximum altitude 17:02:18 66° 74° (ENE) 836 3.4 -16.6°
Drops below altitude 10° 17:07:30 10° 157° (SSE) 2,301 5.7 -17.8°
Sets 17:09:52 0° 160° (SSE) 3,222 6.5 -18.3°
